This demonstration page uses our WeatherBlox Daily Observations layout. Learn more.

Left ArrowRight Arrow

34.74481, -87.66753

Hourly Observations for October 1, 2022

Temp ( °F °C ) Dew Point ( °F °C ) Humidity (%) Winds ( mph kmh ) Pressure ( in mb ) Visibility ( mi km ) Precip ( " mm )
12:53 am 00:53 Clear 60 15.6 46 7.8 60 60 VRB 3 6 29.93 1014 10 16 0.00 0.00
1:53 am 01:53 Clear 58 14.4 46 7.8 65 65 N 3 6 29.93 1014 10 16 0.00 0.00
2:53 am 02:53 Clear 57 13.9 47 8.3 69 69 Calm 29.93 1014 10 16 0.00 0.00
3:53 am 03:53 Clear 55 12.8 47 8.3 74 74 NNE 3 6 29.94 1014 10 16 0.00 0.00
4:53 am 04:53 Clear 55 12.8 46 7.8 72 72 N 3 6 29.94 1014 10 16 0.00 0.00
5:53 am 05:53 Clear 49 9.4 44 6.7 83 83 W 5 7 29.96 1015 10 16 0.00 0.00
6:53 am 06:53 Sunny 49 9.4 44 6.7 83 83 WNW 5 7 29.98 1015 10 16 0.00 0.00
7:53 am 07:53 Sunny 55 12.8 48 8.9 77 77 NW 3 6 30.00 1016 10 16 0.00 0.00
8:53 am 08:53 Sunny 60 15.6 47 8.3 62 62 N 6 9 30.01 1016 10 16 0.00 0.00
9:53 am 09:53 Sunny 63 17.2 46 7.8 54 54 NNW 8 13 30.01 1016 10 16 0.00 0.00
10:53 am 10:53 Sunny 68 20 45 7.2 43 43 VRB 6 9 30.01 1016 10 16 0.00 0.00
11:53 am 11:53 Sunny 73 22.8 44 6.7 35 35 NW 7 11 30.00 1016 10 16 0.00 0.00
12:53 pm 12:53 Sunny 76 24.4 42 5.6 30 30 VRB 7 11 29.99 1016 10 16 0.00 0.00
1:53 pm 13:53 Sunny 79 26.1 40 4.4 25 25 NNE 8 13 29.97 1015 10 16 0.00 0.00
2:53 pm 14:53 Sunny 81 27.2 40 4.4 23 23 NNE 8 13 29.96 1014 10 16 0.00 0.00
3:53 pm 15:53 Sunny 81 27.2 42 5.6 25 25 N 8 13 29.95 1014 10 16 0.00 0.00
4:53 pm 16:53 Sunny 80 26.7 44 6.7 28 28 VRB 6 9 29.95 1014 10 16 0.00 0.00
5:53 pm 17:53 Sunny 77 25 44 6.7 31 31 VRB 3 6 29.96 1015 10 16 0.00 0.00
6:53 pm 18:53 Clear 70 21.1 44 6.7 39 39 NNW 3 6 29.98 1015 10 16 0.00 0.00
7:53 pm 19:53 Clear 67 19.4 42 5.6 40 40 NNW 6 9 30.00 1016 10 16 0.00 0.00
8:53 pm 20:53 Clear 66 18.9 41 5 40 40 N 6 9 30.01 1016 10 16 0.00 0.00
9:53 pm 21:53 Clear 64 17.8 42 5.6 45 45 N 5 7 30.03 1017 10 16 0.00 0.00
10:53 pm 22:53 Clear 61 16.1 42 5.6 50 50 N 5 7 30.04 1017 10 16 0.00 0.00
11:53 pm 23:53 Clear 61 16.1 43 6.1 51 51 N 3 6 30.03 1017 10 16 0.00 0.00

Powered by AerisWeather